Lid_Strength_Index
3 3 3 4 3 4 4 3 4 3 3 3 3 3 2 2 2 5 8 5 3 -1 0 8 8 8 9 10 11 12 14 16 15 14 12 9 9 6 5 6 5 5 5 4 2
3 3 3 3 3 4 4 4 4 3 3 3 3 3 2 2 6 7 3 -2 -2 -2 9 8 9 9 10 10 11 12 15 14 12 13 13 11 8 7 7 7 7 6 4 3 3
3 3 3 3 3 4 4 4 3 3 3 3 3 3 2 3 6 5 -3 -2 -1 2 8 8 8 10 8 12 12 14 13 12 11 11 13 11 9 7 8 9 7 7 6 4 4
2 3 3 3 3 4 4 3 3 3 3 3 3 2 2 6 13 6 -2 -3 -0 6 8 8 9 9 11 10 12 11 12 12 11 10 13 10 8 8 7 8 5 5 4 4 4
2 3 3 3 3 3 3 3 3 3 3 3 2 3 5 7 7 1 -3 -1 7 8 9 8 8 9 10 12 11 12 12 11 11 12 12 7 8 8 8 5 4 4 4 5 4
2 3 3 3 3 3 3 3 3 3 3 2 2 2 6 10 5 1 4 6 8 8 7 8 8 10 11 12 11 10 11 11 11 11 9 8 8 8 7 5 5 5 5 5 4
3 3 3 3 3 3 3 3 3 3 3 2 2 3 6 7 4 3 7 9 7 7 7 7 8 9 10 11 10 10 9 10 11 11 11 10 10 10 6 5 6 6 6 5 5
3 3 3 3 3 3 3 3 3 3 2 2 1 4 6 4 4 5 5 6 6 6 6 7 8 10 11 10 10 12 12 13 11 10 10 11 14 9 6 7 7 6 6 6 6
2 3 3 3 3 3 3 4 3 3 2 1 4 5 7 2 6 5 5 6 7 7 7 5 8 11 10 12 13 13 14 14 12 11 11 10 13 8 6 7 8 8 7 7 7
2 3 3 3 3 3 4 3 2 2 2 2 2 8 7 6 5 5 6 6 7 8 8 9 11 12 13 13 16 14 15 14 14 11 9 11 12 9 7 7 8 8 8 8 8
2 3 3 3 3 4 6 6 8 9 6 8 8 7 6 4 5 6 6 7 7 9 12 11 12 14 13 13 12 12 13 13 12 11 11 12 12 10 8 8 9 8 8 9 8
3 3 3 3 3 4 7 7 6 7 9 7 7 6 4 5 7 7 6 9 9 12 11 12 13 11 10 11 11 12 13 13 12 11 11 12 12 10 9 9 9 8 9 9 9
3 3 3 3 4 6 7 6 6 8 10 8 7 7 7 5 7 7 7 8 10 12 12 13 11 9 10 11 11 13 13 13 13 11 10 11 14 13 9 9 9 9 9 9 10
3 3 3 4 6 7 6 5 6 7 13 11 8 7 8 8 9 6 6 8 10 12 12 12 10 10 11 11 12 14 11 11 12 14 15 14 17 14 11 11 10 10 10 9 9
3 3 3 4 7 7 6 6 6 6 18 8 8 7 9 9 9 8 6 8 10 10 11 11 11 11 11 11 10 12 10 11 12 15 16 15 17 17 12 12 11 10 9 9 8
3 3 4 6 8 6 5 6 7 13 16 9 8 10 10 9 9 8 8 7 8 10 10 11 9 10 10 10 10 10 12 13 15 15 17 16 15 15 14 12 10 8 9 7 8
3 3 5 5 8 7 6 7 13 16 10 10 10 10 11 11 10 9 10 11 12 14 14 11 11 9 8 11 10 11 14 17 17 18 18 14 15 14 11 9 9 8 8 8 8
4 5 6 5 6 6 7 10 16 12 10 8 9 10 11 10 11 10 10 12 10 11 13 14 14 11 9 11 12 14 14 17 19 19 18 14 16 13 9 8 7 8 8 7 8
6 7 8 6 5 6 8 14 14 11 8 9 10 11 12 11 11 10 11 12 10 10 13 14 13 9 9 9 10 13 15 14 16 17 18 16 13 10 9 9 8 8 8 8 7
9 9 8 5 5 7 11 12 11 8 8 9 12 11 13 11 12 12 12 10 10 9 10 11 14 10 9 10 10 12 11 15 16 19 20 18 16 15 13 11 9 8 8 7 6
9 9 8 6 6 8 13 12 10 7 7 9 10 11 10 11 11 12 11 10 9 9 10 12 13 13 11 12 13 12 14 14 15 16 18 20 17 12 11 10 9 8 7 6 6
11 12 8 7 10 12 12 10 7 7 6 7 9 9 10 10 11 11 11 10 8 9 11 11 14 15 14 10 9 11 13 14 16 17 17 17 16 10 9 8 8 8 7 6 6
11 11 7 8 14 13 11 9 8 7 7 8 9 9 9 11 12 11 10 8 8 9 11 11 15 17 15 12 11 12 11 13 15 16 17 18 16 10 9 9 7 7 7 6 6
11 13 11 10 11 12 12 11 10 7 7 8 9 9 11 12 11 12 11 9 7 7 6 8 14 15 17 16 13 13 11 12 13 17 16 16 14 11 11 11 10 8 7 8 8
11 12 11 12 11 11 11 10 10 10 8 9 10 10 10 13 13 12 11 10 9 6 10 12 14 14 14 11 11 12 11 12 13 13 15 13 14 12 11 10 8 7 7 6 6
10 12 9 10 10 11 11 11 10 9 9 10 11 9 10 12 11 11 11 12 13 10 11 11 14 12 14 11 11 12 11 11 12 12 13 13 14 11 8 8 8 7 7 7 6
8 8 8 10 11 13 12 10 9 8 8 8 8 9 10 9 8 9 9 9 9 11 12 12 13 14 16 12 13 15 12 12 12 12 13 15 13 9 9 8 8 7 7 7 6